Showing default

NAVSTAR 74 (USA 262), 40730

Orbit data source: Space-Track

NAVSTAR 74 (USA 262), 40730 is a payload satellite owned by USAF SMC (US) in MEO that was launched on Wed, 15 Jul 2015 UTC via an ATLAS V 401 launch vehicle from the Air Force Eastern Test Range (AFETR). Payloads include a variety of satellites, spacecraft, and rockets equipped with specific instruments for various scientific and technological missions. These include communications satellites like Starlink; space stations such as the ISS; scientific satellites like the Hubble; Earth observation satellites from companies like Planet Labs, Umbra, and HawkEye 360; GPS; miniature CubeSats for education and research; and military/defense satellites.

Loading next visibility...
NAVSTAR 74 (USA 262) details
Identifier
40730, 2015-033A
Orbit
MEO
Last TLE update1 day ago
Origin
Flag of USUSAF SMC (US)
ManufacturerBoeing/ES
MissionOperational Defense Navigation
Bus & MotorGPS IIF, AOCS
Mass1,630 kg wet, ~1,500 kg dry
Launch date (UTC)
2015-07-15 (9 years ago)
Launch vehicle
ATLAS V 401
Launch site
Air Force Eastern Test Range (AFETR)
Object type
Payload
Rocket body
Debris
Shape & HBRBox + 2 Pan, 18 m
Radar Cross Section13.960 m², Large (>1 m²)

Expand to show TLE details & history

TLE from 1 day ago
0 NAVSTAR 74 (USA 262)
1 40730U 15033A   24360.25729619 -.00000066  00000-0  00000-0 0  9995
2 40730  54.4291 289.2459 0101370  21.4482 338.9874  2.00557292 69181
Epoch: 2024-12-25T06:10Z
Definitive object data (Epoch: 2024-12-25T06:10:30.39Z)
Latitude-0.00004°
Longitude102.35157°
Altitude19,932.029 km
Speed3.911 km/s
True Right ascension19h 16m 55s
True Declination0° 00' 00"
Sunlit
Object was in daylight at TLE epoch
Visualization TLE readout
Latitude-23.56455°
Longitude84.15816°
Altitude20,017.448 km
Speed3.899 km/s
Apparent Right ascension18h 27m 02s
Apparent Declination-36° 23' 60"
Sunlit
Object is in daylight
Visualization observer readout
Local Sidereal Time16:29:02
Azimuth156.343° SSE
Elevation9.007°
Doppler factor1
Orbital elements
Apogee altitude20,452.045 km
Perigee altitude19,913.549 km
Semi-major axis26,560.934 km
Eccentricity0.010137
Inclination54.4291°
RAAN289.2459°
Arg. of periapsis21.4482°
True anomaly338.5659°
Mean anomaly338.9874°
Eccentric anomaly338.77715°
Mean motion0.50139 °/min
BSTARUnknown
Orbital period718 mins
Loading maneuver chart data...
Loading historical data...
Loading historical data...
Loading historical data...
Loading historical data...
Loading historical data...
Loading historical data...
Loading historical data...
Other satellites on launch #33 in the year 2015 (2015-07-15 UTC)

NAVSTAR 74 (USA 262) Visibility forecast

Observer location: undefined°, undefined

Span
Click to sort rows by Start time (UTC) header in descending order
Start Az.
Max El. time (UTC)
Max El. Az.
Max El.
End time (UTC)
End Az.
277 mins2024-12-26 17:10:46.037Z155.403° SSE2024-12-26 19:28:46.037Z91.241° ESE38.715°2024-12-26 21:47:46.037Z46.101° ENE
165 mins2024-12-27 09:02:46.037Z321.811° NNW2024-12-27 10:21:46.037Z291.788° WNW21.758°2024-12-27 11:47:46.037Z255.352° W
|